Location: Croissy-Beaubourg
(48.8283°N, 2.6696°E)
Time: 03:28:52
(UTC+00:00)

Cosmos 2082 - Pass Details

Date: 20 August 2022
Orbit: 832 x 856 km, 71.0° (Epoch: 29 September)

Event Time Altitude Azimuth Distance (km) Brightness Sun altitude
Rises 02:51:23 0° 331° (NNW) 3,410 7.1 -17.1°
Reaches altitude 10° 02:53:50 10° 331° (NNW) 2,475 6.3 -16.9°
Maximum altitude 02:59:32 86° 246° (WSW) 857 3.7 -16.2°
Drops below altitude 10° 03:05:14 10° 156° (SSE) 2,475 6.0 -15.5°
Sets 03:07:41 0° 156° (SSE) 3,409 6.7 -15.2°
